Location: Bernay
(48.6766°N, 2.9386°E)
Time: 08:49:48
(UTC+00:00)

SL-24 R/B - RUBIN 2 - Pass Details

Date: 12 January 2026
Orbit: 602 x 985 km, 64.6° (Epoch: 16 February)

Event Time Altitude Azimuth Distance (km) Brightness Sun altitude
Rises 18:04:20 0° 323° (NW) 2,900 7.3 -17.2°
Reaches altitude 10° 18:06:43 10° 331° (NNW) 1,969 6.3 -17.6°
Maximum altitude 18:10:53 42° 42° (NE) 872 3.9 -18.3°
Enters shadow 18:11:27 40° 63° (ENE) 902 3.9 -18.4°
